TimeEDT,TemperatureF,Dew PointF,Humidity,Sea Level PressureIn,VisibilityMPH,Wind Direction,Wind SpeedMPH,Gust SpeedMPH,PrecipitationIn,Events,Conditions,WindDirDegrees,DateUTC
12:53 AM,66.0,64.0,93,29.99,9.0,Calm,Calm,-,N/A,,Clear,0,2013-08-07 04:53:00
1:53 AM,64.9,62.1,90,29.99,7.0,Calm,Calm,-,N/A,,Clear,0,2013-08-07 05:53:00
2:53 AM,63.0,62.1,97,29.99,7.0,Calm,Calm,-,N/A,,Clear,0,2013-08-07 06:53:00
3:53 AM,64.0,61.0,90,29.99,9.0,Calm,Calm,-,N/A,,Scattered Clouds,0,2013-08-07 07:53:00
4:53 AM,64.0,61.0,90,29.99,8.0,Calm,Calm,-,N/A,,Mostly Cloudy,0,2013-08-07 08:53:00
5:53 AM,63.0,62.1,97,29.99,5.0,Calm,Calm,-,N/A,,Clear,0,2013-08-07 09:53:00
6:53 AM,64.9,63.0,93,29.99,7.0,Calm,Calm,-,N/A,,Overcast,0,2013-08-07 10:53:00
7:53 AM,66.0,64.0,93,29.99,9.0,Calm,Calm,-,N/A,,Mostly Cloudy,0,2013-08-07 11:53:00
8:53 AM,72.0,66.0,81,29.99,10.0,Calm,Calm,-,N/A,,Mostly Cloudy,0,2013-08-07 12:53:00
9:53 AM,75.0,66.9,76,30.00,10.0,South,6.9,-,N/A,,Mostly Cloudy,180,2013-08-07 13:53:00
10:53 AM,80.1,68.0,67,30.00,10.0,South,5.8,-,N/A,,Clear,190,2013-08-07 14:53:00
11:53 AM,82.9,69.1,63,29.99,10.0,SSE,8.1,-,N/A,,Partly Cloudy,160,2013-08-07 15:53:00
12:53 PM,82.9,70.0,65,29.98,10.0,South,8.1,-,N/A,,Mostly Cloudy,180,2013-08-07 16:53:00
1:53 PM,86.0,70.0,59,29.97,10.0,SSW,9.2,-,N/A,,Partly Cloudy,210,2013-08-07 17:53:00
2:27 PM,87.8,69.8,55,29.98,10.0,South,6.9,-,N/A,Thunderstorm,Mostly Cloudy,190,2013-08-07 18:27:00
2:53 PM,84.0,72.0,67,29.96,10.0,SSW,8.1,-,N/A,Thunderstorm,Mostly Cloudy,200,2013-08-07 18:53:00
3:53 PM,79.0,66.9,66,29.95,10.0,SW,5.8,-,0.00,Rain,Light Rain,220,2013-08-07 19:53:00
4:16 PM,75.2,69.8,83,29.97,9.0,Calm,Calm,-,0.01,Rain-Thunderstorm,Light Rain,0,2013-08-07 20:16:00
4:31 PM,75.2,69.8,83,29.98,10.0,SSW,3.5,-,0.01,,Mostly Cloudy,200,2013-08-07 20:31:00
4:53 PM,77.0,70.0,79,29.96,10.0,Variable,5.8,-,0.01,,Mostly Cloudy,0,2013-08-07 20:53:00
5:53 PM,78.1,70.0,76,29.96,8.0,Calm,Calm,-,0.00,Rain,Light Rain,0,2013-08-07 21:53:00
6:53 PM,75.9,73.0,91,29.95,9.0,Calm,Calm,-,0.01,,Partly Cloudy,0,2013-08-07 22:53:00
7:00 PM,75.2,73.4,94,29.97,9.0,South,3.5,-,N/A,Thunderstorm,Clear,190,2013-08-07 23:00:00
7:11 PM,75.2,71.6,89,29.97,9.0,South,6.9,-,N/A,,Partly Cloudy,180,2013-08-07 23:11:00
7:53 PM,75.0,71.1,87,29.96,10.0,Calm,Calm,-,N/A,,Scattered Clouds,0,2013-08-07 23:53:00
8:53 PM,73.9,72.0,93,29.96,10.0,Calm,Calm,-,0.01,,Mostly Cloudy,0,2013-08-08 00:53:00
9:53 PM,73.9,71.1,91,29.98,10.0,SE,3.5,-,N/A,,Overcast,130,2013-08-08 01:53:00
10:53 PM,73.0,70.0,90,29.98,10.0,SSE,4.6,-,N/A,,Overcast,160,2013-08-08 02:53:00
11:53 PM,73.0,69.1,87,29.98,10.0,South,5.8,-,N/A,,Clear,170,2013-08-08 03:53:00